Weather History for Akron, CO

Change the Weather History Date:

Thursday, May 2, 2013

  Actual Average Record
Temperature  
Mean Temperature 35 °F 52 °F  
Max Temperature 46 °F 66 °F 84 °F (1981)
Min Temperature 23 °F 39 °F 19 °F (1954)
Degree Days  
Heating Degree Days 30    
Month to date heating degree days 62  
Cooling Degree Days 0    
Month to date cooling degree days 0  
Moisture  
Dew Point 22 °F    
Average Humidity 62    
Maximum Humidity 92    
Minimum Humidity 31    
Precipitation  
Precipitation T in 0.07 in 1.00 in (1988)
Month to date precipitation 0.09 0.15  
Year to date precipitation 2.54 3.41  
Sea Level Pressure  
Sea Level Pressure 30.65 in    
Wind  
Wind Speed 10 mph (WNW)    
Max Wind Speed 21 mph    
Max Gust Speed 24 mph    
Visibility 10 miles    
Events      
T = Trace of Precipitation, MM = Missing Value Source: NWS Daily Summary

Daily Weather History Graph

Daily Weather History Graph

Search for Another Location

Airport:

Trip Planner

Search our weather history database for the weather conditions in past years. The results will help you decide how hot, cold, wet, or windy it might be!

Date:

Astronomy

May. 02, 2013 Rise Set
Actual Time 5:50 AM MDT 7:49 PM MDT
Civil Twilight 5:21 AM MDT 8:18 PM MDT
Nautical Twilight 4:45 AM MDT 8:55 PM MDT
Astronomical Twilight 4:06 AM MDT 9:34 PM MDT
Moon 1:40 AM MDT (5/2) 12:40 PM MDT (5/2)
Length of Visible Light 14h 57m
Length of Day
13h 58m
Waning Gibbous, 47% of the Moon is Illuminated
May 2
Waning Gibbous
May 9
New
May 17
First Quarter
May 24
Full
May 31
Last Quarter

Hourly Weather History & Observations

Time (MDT) Temp. Windchill Dew Point Humidity Pressure Visibility Wind Dir Wind Speed Gust Speed Precip Events Conditions
12:53 AM 27.0 °F 16.7 °F 25.0 °F 92% 30.70 in 10.0 mi West 11.5 mph - N/A   Overcast
1:53 AM 26.1 °F 14.0 °F 25.0 °F 96% 30.69 in 10.0 mi West 15.0 mph - N/A   Mostly Cloudy
2:53 AM 24.1 °F 13.1 °F 23.0 °F 96% 30.71 in 9.0 mi West 11.5 mph - N/A   Overcast
3:53 AM 24.1 °F 14.4 °F 21.9 °F 91% 30.73 in 10.0 mi WNW 9.2 mph - N/A   Mostly Cloudy
4:53 AM 24.1 °F 12.0 °F 21.0 °F 88% 30.73 in 10.0 mi WNW 13.8 mph - N/A   Overcast
5:53 AM 24.1 °F 12.5 °F 21.0 °F 88% 30.75 in 10.0 mi WNW 12.7 mph - N/A   Overcast
6:53 AM 24.1 °F 13.1 °F 21.0 °F 88% 30.78 in 10.0 mi WNW 11.5 mph - N/A   Mostly Cloudy
7:53 AM 24.1 °F 13.1 °F 21.9 °F 91% 30.79 in 10.0 mi West 11.5 mph - N/A   Clear
8:53 AM 27.0 °F 16.7 °F 23.0 °F 85% 30.78 in 10.0 mi West 11.5 mph - N/A   Clear
9:53 AM 30.0 °F 21.1 °F 24.1 °F 79% 30.76 in 10.0 mi West 10.4 mph - N/A   Clear
10:53 AM 34.0 °F 26.6 °F 27.0 °F 75% 30.75 in 10.0 mi West 9.2 mph - N/A   Clear
11:53 AM 37.9 °F 33.5 °F 27.0 °F 65% 30.73 in 10.0 mi WNW 5.8 mph - N/A   Clear
12:53 PM 39.0 °F - 23.0 °F 53% 30.69 in 10.0 mi Calm Calm - N/A   Mostly Cloudy
1:53 PM 39.9 °F 36.7 °F 23.0 °F 51% 30.67 in 10.0 mi West 4.6 mph - 0.00 in   Overcast
2:53 PM 41.0 °F 35.8 °F 27.0 °F 57% 30.65 in 10.0 mi SW 8.1 mph - N/A   Overcast
3:53 PM 39.9 °F 33.9 °F 25.0 °F 55% 30.61 in 10.0 mi West 9.2 mph - N/A   Mostly Cloudy
4:53 PM 43.0 °F - 24.1 °F 47% 30.57 in 10.0 mi Calm Calm - N/A   Overcast
5:53 PM 44.1 °F 37.4 °F 16.0 °F 32% 30.55 in 10.0 mi NNW 13.8 mph - N/A   Clear
6:53 PM 44.1 °F 37.7 °F 15.1 °F 31% 30.53 in 10.0 mi NW 12.7 mph - N/A   Clear
7:53 PM 37.0 °F 32.4 °F 19.9 °F 50% 30.54 in 10.0 mi NNW 5.8 mph - N/A   Clear
8:53 PM 35.1 °F 31.0 °F 17.1 °F 48% 30.54 in 10.0 mi NW 4.6 mph - N/A   Clear
9:53 PM 34.0 °F 29.8 °F 18.0 °F 52% 30.52 in 10.0 mi NW 4.6 mph - N/A   Clear
10:53 PM 34.0 °F 29.8 °F 15.1 °F 46% 30.49 in 10.0 mi NW 4.6 mph - N/A   Clear
11:53 PM 34.0 °F - 16.0 °F 48% 30.46 in 10.0 mi Calm Calm - N/A   Clear